Location: Melbourne
(37.8666°S, 145.1333°E)
Time: 15:34:06
(UTC+11:00)

Iridium 21 - Visible Passes

Search period start: 23 November 2014 00:00
Search period end: 03 December 2014 00:00
Orbit: 776 x 779 km, 86.4° (Epoch: 22 November)

Date Brightness Start Highest point End Pass type
(mag) Time Alt. Az. Time Alt. Az. Time Alt. Az.
23 Nov 6.9 01:40:55 30° ESE 01:40:55 30° ESE 01:45:04 10° SSE visible
23 Nov 6.7 03:21:24 27° WSW 03:21:24 27° WSW 03:25:37 10° SSW visible
24 Nov 7.7 01:07:31 17° ESE 01:07:31 17° ESE 01:10:30 10° SE visible
24 Nov 6.0 02:47:59 49° WSW 02:47:59 49° WSW 02:52:37 10° S visible
25 Nov 5.7 02:14:34 69° SSE 02:14:34 69° SSE 02:19:13 10° S visible
26 Nov 6.4 01:41:09 43° ESE 01:41:09 43° ESE 01:45:29 10° SSE visible
26 Nov 7.2 03:21:37 19° WSW 03:21:37 19° WSW 03:25:07 10° SSW visible
27 Nov 7.2 01:07:43 24° ESE 01:07:43 24° ESE 01:11:20 10° SSE visible
27 Nov 6.5 02:48:11 34° WSW 02:48:11 34° WSW 02:52:27 10° SSW visible
28 Nov 7.9 00:34:17 13° ESE 00:34:17 13° ESE 00:36:15 10° SE visible
28 Nov 5.9 02:14:45 58° SW 02:14:45 58° SW 02:19:17 10° S visible
29 Nov 6.0 01:41:18 58° SE 01:41:18 58° SE 01:45:45 10° S visible
29 Nov 7.6 03:21:46 13° WSW 03:21:46 13° WSW 03:24:04 10° SW visible
30 Nov 6.8 01:07:51 33° ESE 01:07:51 33° ESE 01:11:52 10° SSE visible
30 Nov 7.0 02:48:19 24° WSW 02:48:19 24° WSW 02:52:07 10° SSW visible
01 Dec 7.5 00:34:23 19° ESE 00:34:23 19° ESE 00:37:28 10° SE visible
01 Dec 6.3 02:14:51 42° WSW 02:14:51 42° WSW 02:19:12 10° S visible
02 Dec 5.8 01:41:23 64° S 01:41:23 64° S 01:45:52 10° S visible
